Wind_Speed
19 19 19 19 19 19 19 19 19 18 18 19 19 19 19 19 19 20 20 21 22 22 23 23 23 24 24 25 25 26 27 28 28 28 28 27 27 28
20 20 20 21 21 21 21 21 21 21 21 22 21 21 21 21 21 22 22 23 24 25 26 26 26 27 28 28 29 30 31 31 31 31 30 31 31 31
22 22 22 23 23 22 22 23 23 23 24 24 24 24 24 24 24 24 25 25 26 27 28 28 29 30 31 31 32 33 33 34 34 33 33 34 34 34
23 23 23 23 24 24 24 24 25 25 25 25 26 26 26 27 27 27 27 28 29 30 31 31 32 33 33 34 34 34 34 34 34 35 35 36 36 36
23 24 24 24 25 25 25 26 27 27 27 28 29 29 28 28 29 29 29 30 31 31 31 32 32 33 34 34 34 35 36 36 36 36 37 38 38 38
24 24 25 25 25 25 26 27 28 28 29 29 29 29 29 30 30 30 31 31 32 33 33 33 34 35 35 35 35 37 38 38 39 39 39 40 41 41
24 24 24 25 25 26 26 27 28 28 29 29 29 30 30 30 30 31 32 33 34 35 35 34 36 36 36 36 37 38 39 40 41 41 42 42 43 43
23 24 24 26 25 25 25 26 28 28 28 28 29 30 30 31 32 32 33 34 35 36 37 37 39 39 39 39 38 40 42 42 43 43 44 45 46 47
25 25 25 25 25 26 26 26 27 27 28 29 30 31 32 32 33 34 35 36 37 38 39 39 39 40 40 40 41 42 43 44 45 46 48 49 50 50
24 25 25 26 26 25 25 26 27 28 28 30 31 32 33 34 35 35 36 36 37 38 39 40 40 41 42 42 43 44 46 48 49 49 50 51 51 52
22 23 23 23 23 23 25 26 27 28 29 31 32 33 34 34 35 36 37 39 40 40 41 42 43 43 44 45 46 47 47 48 48 49 49 50 50 50
23 23 23 22 23 24 25 27 28 29 30 31 32 33 33 35 36 37 39 41 42 43 44 44 45 45 45 46 47 47 46 46 47 47 48 48 47 48
23 24 24 24 24 25 26 28 29 30 32 33 33 34 35 36 38 40 41 42 44 45 46 46 45 45 46 45 45 45 46 46 46 46 46 47 47 48
24 24 25 25 26 26 28 29 30 31 32 33 34 36 38 39 40 41 42 44 45 45 45 45 45 45 45 44 44 44 46 46 46 45 46 46 46 46
25 25 26 26 27 28 30 31 32 33 34 35 36 38 39 40 41 42 42 43 44 44 44 44 44 44 44 44 44 44 44 44 44 43 43 43 43 43
26 26 27 28 29 31 31 32 33 34 35 36 37 39 40 41 41 42 43 43 43 43 43 43 42 42 43 43 43 43 43 42 41 41 41 41 42 42
27 28 29 31 32 33 33 34 34 35 36 37 38 39 40 41 42 42 42 42 42 42 42 42 42 42 42 42 42 42 41 41 40 40 40 40 40 40
28 29 30 32 33 33 34 35 35 36 37 38 39 40 40 41 41 41 41 41 41 41 41 41 41 42 42 42 41 41 40 39 39 38 39 39 38 37
30 31 32 32 33 34 35 36 37 37 38 38 39 40 40 40 40 40 40 40 40 41 41 41 40 40 40 39 39 39 38 38 37 37 37 37 35 34
31 31 32 33 34 34 35 36 36 37 37 38 39 39 40 40 40 39 39 39 40 40 39 39 39 38 38 38 37 37 37 37 36 36 35 34 34 34
31 32 33 33 34 35 36 36 36 37 38 38 38 39 39 39 38 38 38 38 38 38 38 38 37 37 37 36 36 35 35 35 35 34 33 32 32 31
32 32 33 33 34 34 35 36 36 37 37 37 37 37 37 37 37 37 37 36 36 36 36 36 36 35 35 34 34 33 32 31 31 31 30 29 28 27
32 33 33 34 34 35 35 35 36 36 36 36 36 36 36 36 36 36 35 35 35 34 34 34 34 33 32 31 30 29 28 28 27 26 26 26 26 25
Wind_Direction
259 261 263 265 266 268 270 272 272 272 275 277 276 275 278 279 279 278 278 278 277 279 280 280 281 281 282 281 281 281 281 281 280 280 280 280 281 281
259 261 264 266 267 267 269 272 273 275 277 278 277 276 278 279 279 279 278 278 280 280 280 280 281 281 282 281 281 281 281 281 281 280 279 279 279 280
260 261 264 266 266 268 268 270 271 273 275 275 276 276 277 278 277 277 277 279 280 280 281 281 282 283 282 281 280 281 281 280 280 279 279 278 278 278
262 263 264 267 267 268 268 268 269 271 273 275 276 277 279 279 279 279 279 280 280 280 282 282 282 281 282 282 281 281 281 280 279 278 278 278 279 279
262 265 266 267 269 268 268 269 269 271 273 276 277 278 279 280 281 283 283 284 283 282 281 281 282 282 282 282 282 281 281 280 280 280 280 280 279 279
263 265 266 268 268 267 270 271 273 274 275 276 276 277 279 280 282 283 284 285 286 285 285 284 284 285 284 284 284 284 283 281 281 281 280 280 280 280
264 266 268 269 270 271 273 273 274 277 279 279 279 279 279 280 281 283 283 285 286 287 286 286 288 289 286 285 284 283 283 282 282 281 280 281 280 280
266 268 269 270 272 274 274 275 276 278 279 280 282 281 281 281 282 283 284 285 286 287 287 287 287 286 287 286 284 283 282 283 282 281 282 282 282 281
267 269 269 271 274 273 273 275 278 280 281 282 282 282 283 283 284 284 285 286 286 287 287 287 286 287 287 286 285 284 283 283 284 283 283 283 282 282
273 272 273 274 274 274 275 278 280 281 281 282 283 283 285 286 286 287 288 287 287 287 287 287 287 286 286 287 287 287 286 285 285 285 284 284 283 282
283 282 281 279 279 280 280 281 283 284 285 285 285 286 287 288 289 290 291 290 290 289 289 289 288 288 287 288 288 288 287 286 286 286 286 285 284 283
284 284 285 284 282 282 284 286 288 289 288 289 291 291 290 290 291 292 293 293 293 292 291 290 289 288 288 288 288 287 287 286 286 287 286 285 285 284
285 285 287 289 288 289 289 289 290 291 291 292 292 294 295 295 295 295 295 295 295 294 293 292 291 290 289 288 288 287 288 288 288 288 287 286 285 284
288 288 289 289 289 289 289 290 290 292 293 293 293 294 295 295 295 296 295 295 296 295 295 293 292 291 291 290 290 290 291 291 290 289 288 287 286 286
289 289 290 290 290 290 291 293 294 295 295 296 295 295 295 296 296 296 296 296 296 296 295 294 293 292 292 291 291 291 292 292 292 291 291 290 288 287
292 292 293 293 294 294 294 295 296 296 297 297 298 298 298 297 297 297 297 296 295 295 294 293 293 292 292 293 293 293 293 294 293 292 292 291 289 289
292 293 293 294 295 296 297 299 299 299 300 300 300 300 299 299 300 299 299 297 296 296 296 295 294 295 295 295 295 295 295 295 294 293 293 292 291 290
295 296 296 297 297 298 299 300 301 301 301 301 301 301 301 301 301 301 300 299 298 298 298 296 296 296 296 296 296 295 294 294 294 293 293 293 293 292
296 297 298 300 301 301 301 301 301 302 302 302 302 302 302 303 303 303 302 301 300 300 299 298 297 296 295 294 294 294 293 293 294 295 295 294 293 292
298 299 300 301 302 303 303 303 303 303 303 303 303 303 304 304 304 303 303 302 302 302 301 301 300 298 297 296 295 294 294 294 295 295 294 293 293 292
299 301 301 302 303 304 304 304 304 304 304 304 304 304 304 305 304 304 303 303 303 303 302 302 301 300 300 298 297 297 296 296 297 297 295 294 293 294
300 301 302 303 304 305 305 305 305 305 305 305 306 306 306 306 306 306 305 305 305 304 303 302 302 302 302 301 300 299 299 299 300 300 299 298 298 297
299 300 302 303 304 305 305 306 306 307 307 307 307 307 307 306 306 306 306 306 306 306 305 305 304 304 305 305 304 303 302 302 302 302 302 302 302 301
Height
5877 5878 5879 5880 5880 5881 5881 5882 5883 5882 5883 5883 5883 5882 5882 5882 5881 5881 5880 5880 5879 5879 5878 5877 5877 5876 5875 5874 5873 5872 5871 5870 5869 5868 5867 5866 5866 5865
5873 5874 5875 5875 5876 5876 5876 5877 5877 5878 5878 5878 5877 5877 5877 5876 5876 5875 5875 5874 5874 5873 5872 5871 5870 5869 5868 5867 5866 5865 5863 5862 5861 5860 5859 5858 5857 5856
5868 5869 5869 5870 5870 5871 5871 5871 5872 5872 5872 5872 5871 5871 5870 5870 5869 5869 5868 5868 5867 5866 5865 5864 5863 5862 5860 5859 5858 5857 5855 5854 5852 5851 5850 5849 5848 5847
5863 5863 5864 5864 5864 5865 5865 5865 5866 5866 5866 5865 5865 5864 5864 5863 5862 5862 5861 5861 5860 5859 5857 5856 5854 5853 5852 5850 5849 5847 5846 5844 5843 5842 5841 5839 5838 5837
5857 5858 5858 5858 5859 5859 5859 5859 5859 5859 5859 5859 5858 5857 5857 5856 5855 5854 5853 5852 5851 5850 5849 5848 5846 5844 5842 5841 5839 5838 5836 5834 5833 5832 5830 5829 5828 5826
5851 5852 5852 5852 5852 5852 5852 5852 5852 5852 5851 5851 5851 5850 5849 5848 5848 5847 5845 5844 5843 5841 5840 5838 5836 5834 5833 5831 5830 5828 5826 5824 5822 5821 5820 5818 5817 5815
5845 5846 5846 5846 5846 5846 5845 5845 5845 5844 5844 5843 5843 5842 5841 5840 5839 5838 5837 5836 5834 5832 5830 5828 5826 5825 5823 5821 5819 5817 5814 5813 5811 5809 5808 5806 5804 5802
5839 5839 5840 5840 5840 5839 5839 5838 5837 5837 5836 5835 5835 5834 5833 5832 5830 5829 5827 5826 5824 5823 5820 5818 5816 5814 5812 5810 5808 5806 5803 5801 5799 5797 5795 5792 5790 5788
5833 5833 5833 5833 5833 5832 5832 5831 5830 5829 5829 5828 5827 5826 5824 5823 5822 5820 5818 5816 5814 5812 5810 5808 5805 5802 5800 5798 5796 5793 5791 5788 5786 5783 5781 5778 5776 5773
5827 5827 5827 5827 5826 5825 5825 5824 5823 5822 5821 5820 5819 5818 5816 5814 5812 5811 5808 5806 5804 5801 5799 5797 5794 5791 5788 5785 5783 5780 5777 5774 5771 5768 5765 5762 5760 5757
5821 5821 5820 5820 5819 5818 5818 5817 5816 5815 5813 5812 5810 5808 5806 5804 5802 5800 5798 5795 5793 5790 5787 5784 5781 5778 5775 5772 5769 5765 5762 5759 5755 5752 5749 5746 5743 5741
5816 5815 5814 5813 5812 5811 5811 5809 5808 5806 5805 5803 5801 5798 5796 5794 5792 5789 5786 5784 5781 5778 5774 5771 5768 5764 5762 5758 5754 5751 5747 5744 5740 5737 5734 5730 5727 5725
5810 5809 5808 5807 5806 5805 5803 5802 5800 5798 5796 5794 5791 5789 5787 5784 5781 5778 5775 5771 5768 5765 5761 5757 5754 5750 5747 5744 5740 5736 5733 5729 5726 5722 5719 5715 5712 5709
5804 5802 5801 5800 5799 5797 5796 5794 5792 5789 5787 5784 5782 5779 5776 5774 5770 5767 5763 5759 5755 5751 5747 5743 5740 5737 5733 5730 5727 5723 5718 5714 5711 5707 5704 5700 5697 5693
5797 5796 5794 5793 5791 5789 5787 5785 5782 5780 5777 5774 5772 5769 5766 5762 5758 5754 5750 5746 5742 5738 5734 5730 5727 5723 5719 5716 5712 5708 5705 5700 5696 5692 5689 5685 5682 5678
5790 5788 5787 5785 5783 5781 5778 5776 5773 5770 5767 5764 5761 5758 5754 5750 5746 5742 5738 5734 5730 5725 5721 5717 5713 5710 5706 5702 5698 5694 5690 5687 5683 5679 5675 5671 5668 5664
5783 5782 5780 5777 5775 5772 5769 5766 5763 5760 5757 5753 5749 5746 5742 5738 5734 5729 5725 5721 5717 5713 5709 5704 5700 5696 5692 5689 5685 5681 5677 5673 5669 5666 5662 5658 5655 5651
5776 5773 5771 5769 5766 5763 5760 5757 5753 5750 5746 5742 5738 5734 5730 5725 5721 5717 5712 5708 5704 5700 5696 5692 5688 5684 5680 5675 5672 5669 5665 5661 5657 5653 5649 5646 5643 5639
5768 5765 5762 5759 5756 5753 5750 5747 5743 5739 5735 5731 5727 5722 5718 5714 5709 5705 5701 5696 5692 5688 5684 5680 5676 5672 5668 5664 5660 5656 5653 5649 5645 5641 5638 5634 5631 5628
5759 5756 5753 5750 5747 5744 5740 5736 5733 5729 5724 5720 5716 5711 5707 5702 5698 5694 5689 5685 5681 5676 5672 5668 5663 5659 5655 5652 5648 5644 5640 5637 5634 5630 5627 5623 5620 5617
5751 5748 5745 5741 5738 5734 5730 5726 5722 5718 5714 5710 5705 5701 5696 5692 5687 5683 5679 5674 5670 5666 5661 5657 5652 5648 5644 5640 5637 5633 5629 5625 5622 5619 5616 5613 5610 5607
5742 5739 5736 5732 5728 5725 5721 5717 5713 5708 5704 5700 5695 5690 5686 5681 5677 5673 5668 5664 5660 5655 5650 5646 5642 5638 5634 5630 5626 5623 5619 5616 5612 5609 5606 5604 5601 5598
5733 5730 5727 5723 5719 5715 5711 5707 5703 5698 5694 5690 5685 5681 5676 5672 5667 5663 5659 5654 5650 5646 5641 5637 5632 5628 5625 5621 5617 5614 5611 5608 5605 5602 5599 5595 5593 5590